Location: Newark
(7.0858°N, 171.3717°E)
Time: 01:07:33
(UTC+00:00)

Vanguard 3 - Pass Details

Date: 26 November 2020
Orbit: 508 x 3262 km, 33.3° (Epoch: 19 January)

Event Time Altitude Azimuth Distance (km) Brightness Sun altitude
Rises 07:42:05 0° 257° (WSW) 3,293 11.8 -21.2°
Reaches altitude 10° 07:45:19 10° 272° (W) 2,061 10.2 -22.0°
Maximum altitude 07:48:50 22° 325° (NW) 1,215 8.2 -22.8°
Enters shadow 07:49:32 21° 341° (NNW) 1,226 8.0 -22.9°
